This is the latest recevied weather packets stored in our database for station/object KC8UZG. If no packets are shown the sender has not sent any weather packets the latest 10 day(s).
| Time | Temp. | Humidity | Pressure | Rain* | Wind** | Luminosity | Snow |
|---|---|---|---|---|---|---|---|
| 1777928130 | 22.22° C | 57% | 1005.2 hPa | 0 mm | - | 192 W/m² | - |
| 1777927536 | 21.67° C | 61% | 1005.2 hPa | 0 mm | - | 179 W/m² | - |
| 1777926942 | 21.11° C | 63% | 1005.6 hPa | 0 mm | - | 144 W/m² | - |
| 1777926322 | 21.11° C | 64% | - | 0 mm | - | 154 W/m² | - |
| 1777925727 | 21.11° C | 64% | - | 0 mm | - | 146 W/m² | - |
| 1777925133 | 21.11° C | 64% | - | 0 mm | - | 156 W/m² | - |
| 1777924539 | 21.67° C | 65% | - | 0 mm | - | 197 W/m² | - |
| 1777923918 | 21.11° C | 67% | - | 0 mm | - | 287 W/m² | - |
| 1777923325 | 20.56° C | 68% | - | 0 mm | - | 134 W/m² | - |
| 1777922730 | 20° C | 70% | - | 0 mm | - | 139 W/m² | - |
| 1777922136 | 20.56° C | 69% | - | 0 mm | - | 88 W/m² | - |
| 1777921542 | 21.11° C | 67% | - | 0 mm | - | 78 W/m² | - |
| 1777920921 | 21.67° C | 65% | - | 0 mm | - | 141 W/m² | - |
| 1777920326 | 21.67° C | 64% | 1007.3 hPa | 0 mm | - | 108 W/m² | - |
| 1777919733 | 21.67° C | 64% | 1007.3 hPa | 0 mm | - | 143 W/m² | - |
| 1777919140 | 21.67° C | 64% | 1007 hPa | 0 mm | - | 225 W/m² | - |
| 1777918517 | 21.67° C | 64% | - | 0 mm | - | 214 W/m² | - |
| 1777917925 | 22.22° C | 63% | - | 0 mm | - | 307 W/m² | - |
| 1777917330 | 21.67° C | 63% | - | 0 mm | - | 357 W/m² | - |
| 1777916736 | 21.67° C | 62% | - | 0 mm | - | 312 W/m² | - |
| 1777916142 | 22.78° C | 61% | 1006.6 hPa | 0 mm | - | 476 W/m² | - |
| 1777915520 | 22.22° C | 61% | 1006.6 hPa | 0 mm | - | 464 W/m² | - |
| 1777914927 | 21.67° C | 62% | 1006.6 hPa | 0 mm | - | 453 W/m² | - |
| 1777914333 | 21.67° C | 62% | 1006.6 hPa | 0 mm | - | 447 W/m² | - |
| 1777913739 | 21.67° C | 62% | - | 0 mm | - | 453 W/m² | - |
* Rain latest hour (hover to see other rain measurements)
** Current wind speed in m/s (hover to see current wind gust speed)